Regional Weather Roundup
Issued by NWS

Home | Current Version | Previous Version | Graphics & Text | Print | Product List | Glossary On
Versions: 1 2 3 4 5 6 7 8 9 10 11 12 13 14 15 16 17 18 19 20 21 22 23 24 25 26 27 28 29 30 31 32 33 34 35 36 37 38 39 40 41 42 43 44 45 46 47 48 49 50
000
ASUS43 KFSD 040010
RWRSD

WEATHER ROUNDUP FOR SOUTH DAKOTA
NATIONAL WEATHER SERVICE SIOUX FALLS SD
700 PM CDT MON AUG 03 2015

NOTE: "FAIR" INDICATES FEW OR NO CLOUDS BELOW 12,000 FEET WITH NO
SIGNIFICANT WEATHER AND/OR OBSTRUCTIONS TO VISIBILITY.


SDZ001>005-009-010-012>017-040100-
NORTHWEST AND NORTH CENTRAL SOUTH DAKOTA

CITY           SKY/WX    TMP DP  RH WIND       PRES   REMARKS
BUFFALO          N/A     83  51  33 SE9       29.89F
FAITH            N/A     84  49  29 SE8       29.94F
MOBRIDGE       SUNNY     83  52  34 E7        29.92F
$$

SDZ012>016-024>037-041>051-057-063-072>074-040100-
SOUTHWEST AND SOUTH CENTRAL SOUTH DAKOTA

CITY           SKY/WX    TMP DP  RH WIND       PRES   REMARKS
RAPID CTY ARPT PTSUNNY   81  61  50 SE13      29.94F
PIERRE         SUNNY     85  53  33 E7        29.91F
CUSTER         PTSUNNY   73  57  57 E10       30.10S
ELLSWORTH AFB  CLOUDY    83  60  46 SE13      29.94F
PHILIP         PTSUNNY   82  60  47 E10       29.92F
PINE RIDGE     PTSUNNY   87  62  43 E12       29.92F
WINNER         FAIR      83  56  39 E12       29.95S
$$

SDZ004>011-016>023-039-040-040100-
NORTHEAST SOUTH DAKOTA

CITY           SKY/WX    TMP DP  RH WIND       PRES   REMARKS
ABERDEEN       SUNNY     80  53  39 NE7       29.94F
WATERTOWN      SUNNY     76  51  41 NW9       29.96F
BROOKINGS      SUNNY     77  55  47 NW7       29.97S
SISSETON         N/A     77  53  43 N7        29.93S
$$

SDZ017-020-022-023-036>040-048>070-040100-
SOUTHEAST SOUTH DAKOTA

CITY           SKY/WX    TMP DP  RH WIND       PRES   REMARKS
SIOUX FALLS    MOSUNNY   80  59  48 W3        29.94F
HURON          SUNNY     80  55  42 N6        29.93F
CHAMBERLAIN    SUNNY     78  61  54 SE5       29.94F
MITCHELL       SUNNY     81  60  48 N7        29.94S
YANKTON        SUNNY     79  63  57 E5        29.93S
$$

ABBREVIATIONS USED IN REMARKS
   TC - TEMPERATURE IN CELSIUS
  WCI - WIND CHILL INDEX
   HX - HEAT INDEX
  VSB - VISIBILITY



USA.gov is the U.S. government's official web portal to all federal, state and local government web resources and services.